This demonstration page uses our WeatherBlox Daily Observations layout. Learn more.

Left ArrowRight Arrow

40.92501, -98.34201

Hourly Observations for May 21, 2020

Temp ( °F °C ) Dew Point ( °F °C ) Humidity (%) Winds ( mph kmh ) Pressure ( in mb ) Visibility ( mi km ) Precip ( " mm )
12:53 am 00:53 Cloudy 63 17.2 54 12.2 73 73 SSE 14 22 29.89 1012 10 16 0.00 0.00
1:49 am 01:49 Cloudy 63 17 55 13 77 77 SSE 16 26 29.88 1012 10 16 0.00 0.00
1:53 am 01:53 Cloudy 63 17.2 55 12.8 76 76 SSE 16 26 29.90 1013 10 16 0.00 0.00
2:53 am 02:53 Cloudy 62 16.7 54 12.2 75 75 SE 12 19 29.90 1013 10 16 0.00 0.00
3:53 am 03:53 Cloudy 62 16.7 55 12.8 78 78 SSE 10 17 29.92 1013 10 16 0.00 0.00
4:53 am 04:53 Cloudy 62 16.7 55 12.8 78 78 E 7 11 29.94 1014 10 16 0.00 0.00
5:53 am 05:53 Mostly Cloudy 60 15.6 54 12.2 80 80 ESE 12 19 29.93 1014 10 16 0.00 0.00
6:37 am 06:37 Mostly Cloudy 60 15.6 54 12.2 80 80 SE 10 17 29.92 1013 8 13 0.00 0.00
6:53 am 06:53 Cloudy 60 15.6 55 12.8 84 84 ESE 13 20 29.92 1013 8 13 0.00 0.00
7:02 am 07:02 Mostly Cloudy 60 15.6 55 12.8 84 84 ESE 14 22 29.91 1013 7 11 0.00 0.00
7:16 am 07:16 Mostly Cloudy 61 16.1 55 12.8 81 81 ESE 18 30 29.90 1012 7 11 0.00 0.00
7:53 am 07:53 Cloudy 62 16.7 56 13.3 80 80 SE 16 26 29.90 1013 7 11 0.00 0.00
8:10 am 08:10 Cloudy 63 17.2 56 13.3 78 78 SE 18 30 29.87 1011 8 13 0.00 0.00
8:53 am 08:53 Mostly Cloudy 64 17.8 56 13.3 75 75 SE 20 31 29.90 1013 9 14 0.00 0.00
9:02 am 09:02 Mostly Cloudy 64 17.8 55 12.8 73 73 SE 21 33 29.89 1012 9 14 0.00 0.00
9:53 am 09:53 Cloudy with Light Rain 64 17.8 55 12.8 73 73 SSE 12 19 29.92 1013 10 16 0.00 0.00
10:39 am 10:39 Cloudy with Nearby Thunderstorms 64 17.8 57 13.9 78 78 SE 9 15 29.89 1012 6 10 0.01 0.25
10:53 am 10:53 Cloudy with Nearby Thunderstorms 63 17.2 57 13.9 81 81 ESE 8 13 29.91 1013 6 10 0.01 0.25
11:09 am 11:09 Cloudy with Light Rain 64 17.8 57 13.9 78 78 E 12 19 29.87 1011 5 8 0.01 0.25
11:53 am 11:53 Cloudy with Light Rain 64 17.8 58 14.4 81 81 SE 10 17 29.92 1013 8 13 0.04 1.02
12:53 pm 12:53 Cloudy with Light Rain 65 18.3 57 13.9 76 76 SE 15 24 29.88 1012 10 16 0.00 0.00
1:45 pm 13:45 Cloudy with Rain 63 17.2 58 14.4 84 84 SE 21 33 29.86 1011 3 4 0.03 0.76
1:53 pm 13:53 Cloudy with Light Rain 63 17.2 58 14.4 84 84 SE 20 31 29.88 1012 4 6 0.05 1.27
2:39 pm 14:39 Cloudy with Rain 62 16.7 58 14.4 86 86 SE 22 35 29.83 1010 3 4 0.06 1.52
2:53 pm 14:53 Cloudy with Rain 63 17.2 58 14.4 84 84 SE 18 30 29.86 1011 3 5 0.10 2.54
3:46 pm 15:46 Cloudy with Light Rain 62 16.7 59 15 90 90 SE 15 24 29.85 1011 3 5 0.15 3.81
3:53 pm 15:53 Cloudy with Light Rain 62 16.7 59 15 90 90 SE 14 22 29.87 1012 3 5 0.16 4.06
4:18 pm 16:18 Cloudy with Nearby Thunderstorms 63 17.2 59 15 87 87 SE 9 15 29.84 1010 3 4 0.03 0.76
4:27 pm 16:27 Cloudy with Strong Thunderstorms 62 16.7 59 15 90 90 S 5 7 29.85 1011 2 2 0.04 1.02
4:38 pm 16:38 Mostly Cloudy with Strong Thunderstorms 62 16.7 59 15 90 90 S 9 15 29.86 1011 1 1 0.25 6.35
4:45 pm 16:45 Cloudy with Thunderstorms 62 16.7 59 15 90 90 ESE 12 19 29.84 1011 1 2 0.40 10.16
4:53 pm 16:53 Cloudy with Strong Thunderstorms 62 16.7 59 15 90 90 SE 3 6 29.89 1012 1 2 0.46 11.68
5:04 pm 17:04 Cloudy with Nearby Thunderstorms 63 17.2 59 15 87 87 SSE 3 6 29.86 1011 3 5 0.05 1.27
5:16 pm 17:16 Cloudy with Nearby Thunderstorms 62 16.7 59 15 90 90 ESE 9 15 29.84 1011 3 5 0.07 1.78
5:33 pm 17:33 Cloudy with Rain 62 16.7 59 15 90 90 SE 18 30 29.83 1010 2 3 0.08 2.03
5:48 pm 17:48 Cloudy with Heavy Rain 63 17 61 16 94 94 SE 16 26 29.84 1011 2 3 0.13 3.30
5:53 pm 17:53 Cloudy with Rain 63 17.2 60 15.6 90 90 SE 16 26 29.87 1012 2 3 0.16 4.06
5:56 pm 17:56 Cloudy with Nearby Thunderstorms 63 17.2 59 15 87 87 SE 16 26 29.84 1010 2 3 0.01 0.25
6:04 pm 18:04 Cloudy with Nearby Thunderstorms 63 17.2 59 15 87 87 SE 16 26 29.84 1010 5 8 0.01 0.25
6:17 pm 18:17 Cloudy with Light Rain 63 17.2 59 15 87 87 SE 13 20 29.85 1011 5 8 0.03 0.76
6:28 pm 18:28 Cloudy with Light Rain 63 17.2 59 15 87 87 SE 13 20 29.86 1011 2 3 0.06 1.52
6:37 pm 18:37 Cloudy with Nearby Thunderstorms 63 17.2 59 15 87 87 SSE 10 17 29.87 1011 4 6 0.07 1.78
6:53 pm 18:53 Cloudy with Nearby Thunderstorms 63 17.2 59 15 87 87 SE 12 19 29.89 1012 1 1 0.30 7.62
7:03 pm 19:03 Cloudy with Light Rain 63 17.2 59 15 87 87 SE 13 20 29.85 1011 2 3 0.09 2.29
7:14 pm 19:14 Cloudy with Light Rain 63 17.2 59 15 87 87 SE 12 19 29.85 1011 4 6 0.10 2.54
7:53 pm 19:53 Cloudy 63 17.2 59 15 87 87 SE 10 17 29.87 1012 7 11 0.10 2.54
8:07 pm 20:07 Cloudy with Nearby Thunderstorms 64 17.8 59 15 84 84 SE 13 20 29.84 1010 8 13 0.00 0.00
8:22 pm 20:22 Cloudy 64 17.8 59 15 84 84 ESE 10 17 29.84 1010 9 14 0.00 0.00
8:53 pm 20:53 Cloudy 63 17.2 59 15 87 87 SE 7 11 29.88 1012 9 14 0.00 0.00
9:53 pm 21:53 Cloudy with Light Rain 63 17.2 59 15 87 87 SE 9 15 29.90 1013 7 11 0.00 0.00
10:39 pm 22:39 Cloudy with Nearby Thunderstorms 62 16.7 59 15 90 90 N 9 15 29.89 1012 9 14 0.00 0.00
10:53 pm 22:53 Cloudy with Nearby Thunderstorms 62 16.7 59 15 90 90 N 12 19 29.93 1014 4 6 0.00 0.00
10:57 pm 22:57 Cloudy with Heavy Rain 62 16.7 59 15 90 90 N 10 17 29.90 1013 3 4 0.01 0.25
11:17 pm 23:17 Cloudy with Heavy Rain 61 16.1 59 15 93 93 NNE 14 22 29.91 1013 1 2 0.21 5.33
11:27 pm 23:27 Cloudy with Heavy Rain 62 16.7 59 15 90 90 N 13 20 29.91 1013 2 3 0.36 9.14
11:41 pm 23:41 Cloudy with Heavy Rain 61 16.1 59 15 93 93 NE 10 17 29.92 1013 1 2 0.52 13.21
11:49 pm 23:49 Cloudy with Heavy Rain 63 17 59 15 88 88 ENE 10 17 29.91 1013 1 2 0.77 19.56
11:53 pm 23:53 Cloudy with Heavy Rain 62 16.7 59 15 90 90 ENE 14 22 29.93 1014 1 2 0.89 22.61

Powered by AerisWeather